Location: Béaulencourt
(50.0796°N, 2.8795°E)
Time: 19:59:05
(UTC+00:00)

Landsat 7 - Pass Details

Date: 20 January 2026
Orbit: 680 x 682 km, 97.9° (Epoch: 16 February)

Event Time Altitude Azimuth Distance (km) Brightness Sun altitude
Rises 06:21:11 0° 14° (NNE) 3,055 7.1 -11.9°
Reaches altitude 10° 06:23:26 10° 14° (NNE) 2,134 6.3 -11.6°
Maximum altitude 06:28:07 86° 106° (ESE) 689 3.8 -10.9°
Drops below altitude 10° 06:32:45 10° 194° (SSW) 2,116 6.4 -10.2°
Sets 06:34:59 0° 195° (SSW) 3,027 7.2 -9.8°
